DELTA 1 DEB, 12536

Orbit data source: Space-Track

DELTA 1 DEB, 12536 is space debris in LEO originally from a launch on Thu, 29 Jul 1976 UTC launched from the Air Force Western Test Range (AFWTR). Debris objects in space refer to the collection of defunct objects orbiting the Earth. Examples of debris include non-operational satellites, rocket bodies, and fragments generated from explosions, collisions, or faulty payload assembly.

Loading next visibility...
Identifier
12536, 1976-077DR
Orbit
LEO
Country
Flag of USUS
Related business
Manufacturer
Unknown
Mission
Spacecraft
Bus & Motor
Unknown
Mass
Unknown
Launch date (UTC)
1976-07-29 (50 years ago)
Launch vehicle
Unknown
Launch site
Air Force Western Test Range (AFWTR)
Object type
Payload
Rocket body
Debris
Shape & HBR
Unknown shape, 0.1 m
Radar Cross Section
Small (<0.1 m²)

Expand to show TLE details & history
Last TLE update: 10 hours ago

TLE from 10 hours ago
0 DELTA 1 DEB
1 12536U 76077DR  26118.78917799  .00003906  00000-0  45041-1 0  9992
2 12536 101.7535 217.3018 0494896 291.6073 224.7379 11.79655903 48047
Epoch: 2026-04-28T18:56Z
TLE epoch observation values (Epoch: 2026-04-28T18:56:24.978Z)
Latitude
26.88491°
Longitude
-97.53414°
Altitude
2,072.139 km
Speed
6.745 km/s
True Right ascension
02h 53m 19s
True Declination
26° 46' 05"
Sunlit
Object was in daylight at epoch
Visualization orbit readout
Latitude
Unknown
Longitude
Unknown
Altitude
Unknown
Speed
Unknown
Apparent Right ascension
Unknown
Apparent Declination
Unknown
Sunlit
N/A
Visualization observer readout
Local Sidereal Time
12:06:41
Azimuth
Unknown
Elevation
Unknown
Doppler factor
Unknown
Orbital elements
Apogee altitude
2,174.175 km
Perigee altitude
1,367.592 km
Semi-major axis
8,149.02 km
Eccentricity
0.04949
Inclination
101.7535°
RAAN
217.3018°
Arg. of periapsis
291.6073°
True anomaly
220.91732°
Mean anomaly
224.7379°
Eccentric anomaly
222.81092°
Mean motion
2.95043 °/min
Orbital period
122.02 mins
BSTAR
0.045041
Loading maneuver chart data...
Computing Atmospheric mass density...
Loading historical data...
Loading historical data...
Loading historical data...
Loading historical data...
Loading historical data...
Loading historical data...
Loading historical data...

Documentation

Showing up to 5 results
|